"Pseudo-MPEC" for P1168qS

Created 2020 Sep 20 16:07:24 UT using Find_Orb

Click here for an explanation of pseudo-MPECs

 
 Astrometry: 
     P1168qS  C2020 09 15d-]FVhrFGQ;#$ZAstrometryYVY\I/95redacted;Yp+clicklJIF51
     P1168qS  C2020 09 15U4V943[-Y(here^t_=.rsgTvvHe0r)2#P\L+K\x_oZlfor)Q#Vn2F51
     P1168qS  C2020 09 15NAS]qexplanation*+\:#fZpc`!4vMl4@uPKR,s5nLreVW!J4APHF51
     P1168qS ^C2020 09 16.59452204 39 45.497-38 40 06.39   ~9GLb 20.79GVNEOCP568
     P1168qS ^C2020 09 16.59547004 39 45.580-38 40 06.74   ~9GLb 20.80GVNEOCP568
     P1168qS ^C2020 09 16.59641904 39 45.666-38 40 07.11   ~9GLb 20.79GVNEOCP568

Station data:
(568) Mauna Kea  (N19.826116 W155.472200)  US/Hawaii.
(F51) Pan-STARRS 1, Haleakala  (N20.707235 W156.255910)  US/Hawaii.
   Observers N. Primak, A. Schultz, S. Watters, J. Thiel, T. Goggia. Measurer
   PS1 Science Consortium. 1.8-m Ritchey-Chrétien + CCD.

Orbital elements:  P1168qS
   Perihelion 2020 Aug 23.336682 +/- 48.2 TT =  8:04:49 (JD 2459084.836682)
Epoch 2020 Sep 16.0 TT = JDT 2459108.5   Earth MOID: 0.4562   AutoNEOCP
M   5.50938494 +/- 32               (J2000 ecliptic)
n   0.23282385 +/- 0.268            Peri.  239.49718 +/- 100
a   2.61688354 +/- 2.05             Node   112.14197 +/- 34
e   0.4939101 +/- 0.266             Incl.   27.43089 +/- 10
P   4.23                   H 19.5   G  0.15   U 11.9  SR
q 1.32437814 +/- 0.342    Q 3.90938893 +/- 40.8
From 6 observations 2020 Sept. 15-16 (23.7 hr); mean residual 0".02
Residuals in arcseconds: 
200915 F51  .00   .05-    200915 F51  .01+  .03+    200916 568  .01-  .01+    
200915 F51  .01-  .03+    200916 568  .02+  .04-    200916 568  .01-  .03+    

Ephemerides (geocentric):
Date (UTC) HH   RA              Dec         delta   r     elong  mag " sig PA
---- -- -- --  -------------   -----------  ------ ------ -----  --- ---- ---
2020 09 20 16  04 45 42.214   -39 05 21.89  .70982 1.3571 103.4 21.2  381  19
2020 09 20 17  04 45 45.496   -39 05 36.36  .70988 1.3572 103.4 21.2  388  19
2020 09 20 18  04 45 48.771   -39 05 50.80  .70994 1.3573 103.4 21.2  396  19
2020 09 20 19  04 45 52.039   -39 06 05.22  .71000 1.3574 103.4 21.2  403  19
2020 09 20 20  04 45 55.299   -39 06 19.61  .71006 1.3575 103.4 21.2  411  19
2020 09 20 21  04 45 58.552   -39 06 33.98  .71012 1.3576 103.4 21.2  419  19
2020 09 20 22  04 46 01.797   -39 06 48.32  .71018 1.3577 103.4 21.2  427  19
2020 09 20 23  04 46 05.035   -39 07 02.65  .71024 1.3578 103.4 21.2  435  19
2020 09 21 00  04 46 08.265   -39 07 16.94  .71030 1.3579 103.4 21.2  443  19
2020 09 21 01  04 46 11.488   -39 07 31.22  .71036 1.3580 103.4 21.2  451  19
2020 09 21 02  04 46 14.703   -39 07 45.47  .71042 1.3581 103.4 21.2  459  19
2020 09 21 03  04 46 17.911   -39 07 59.69  .71048 1.3582 103.4 21.2  468  19
2020 09 21 04  04 46 21.112   -39 08 13.90  .71055 1.3583 103.5 21.2  476  19
2020 09 21 05  04 46 24.305   -39 08 28.08  .71061 1.3584 103.5 21.2  484  19
2020 09 21 06  04 46 27.490   -39 08 42.23  .71067 1.3585 103.5 21.2  493  19
2020 09 21 07  04 46 30.668   -39 08 56.36  .71073 1.3586 103.5 21.2  502  19
2020 09 21 08  04 46 33.839   -39 09 10.47  .71079 1.3587 103.5 21.2  510  19
2020 09 21 09  04 46 37.002   -39 09 24.55  .71085 1.3587 103.5 21.2  519  19
2020 09 21 10  04 46 40.157   -39 09 38.61  .71091 1.3588 103.5 21.2  528  19
2020 09 21 11  04 46 43.305   -39 09 52.64  .71097 1.3589 103.5 21.2  537  19
2020 09 21 12  04 46 46.446   -39 10 06.65  .71103 1.3590 103.5 21.2  546  19
2020 09 21 13  04 46 49.579   -39 10 20.64  .71109 1.3591 103.5 21.2  556  19
2020 09 21 14  04 46 52.705   -39 10 34.60  .71115 1.3592 103.5 21.2  565  19
2020 09 21 15  04 46 55.823   -39 10 48.53  .71121 1.3593 103.5 21.2  574  19
2020 09 21 16  04 46 58.934   -39 11 02.45  .71127 1.3594 103.5 21.2  584  19
2020 09 21 17  04 47 02.038   -39 11 16.34  .71133 1.3595 103.6 21.2  593  19
2020 09 21 18  04 47 05.133   -39 11 30.20  .71139 1.3596 103.6 21.2  603  19
2020 09 21 19  04 47 08.222   -39 11 44.04  .71145 1.3597 103.6 21.2  613  19
2020 09 21 20  04 47 11.303   -39 11 57.86  .71151 1.3598 103.6 21.2  623  19
2020 09 21 21  04 47 14.377   -39 12 11.65  .71157 1.3599 103.6 21.2  632  19
2020 09 21 22  04 47 17.443   -39 12 25.42  .71163 1.3600 103.6 21.2  643  19
2020 09 21 23  04 47 20.501   -39 12 39.16  .71168 1.3601 103.6 21.2  653  19
2020 09 22 00  04 47 23.552   -39 12 52.88  .71174 1.3602 103.6 21.2  663  19
2020 09 22 01  04 47 26.596   -39 13 06.58  .71180 1.3603 103.6 21.2  673  19
2020 09 22 02  04 47 29.633   -39 13 20.25  .71186 1.3604 103.6 21.2  684  19
2020 09 22 03  04 47 32.661   -39 13 33.89  .71192 1.3605 103.6 21.2  694  19
2020 09 22 04  04 47 35.683   -39 13 47.52  .71198 1.3606 103.6 21.2  705  19
2020 09 22 05  04 47 38.697   -39 14 01.11  .71204 1.3607 103.6 21.2  715  19
2020 09 22 06  04 47 41.703   -39 14 14.69  .71210 1.3608 103.6 21.2  726  19
2020 09 22 07  04 47 44.702   -39 14 28.24  .71216 1.3609 103.7 21.2  737  19
2020 09 22 08  04 47 47.694   -39 14 41.76  .71222 1.3610 103.7 21.2  748  19
2020 09 22 09  04 47 50.678   -39 14 55.26  .71228 1.3611 103.7 21.2  759  19
2020 09 22 10  04 47 53.655   -39 15 08.73  .71234 1.3612 103.7 21.2  771  19
2020 09 22 11  04 47 56.624   -39 15 22.19  .71240 1.3613 103.7 21.2  782  19
2020 09 22 12  04 47 59.586   -39 15 35.61  .71245 1.3614 103.7 21.2  793  19
2020 09 22 13  04 48 02.540   -39 15 49.01  .71251 1.3615 103.7 21.2  805  19
2020 09 22 14  04 48 05.487   -39 16 02.39  .71257 1.3616 103.7 21.2  817  19
2020 09 22 15  04 48 08.427   -39 16 15.74  .71263 1.3617 103.7 21.2  828  19